When you browse on this site, cookies collect data to enhance your experience and personalize the content and advertising you see.
Visit our Privacy Policy to learn more. By continuing to use the site, you agree to this use of cookies and data.

Hourly Weather Koniz

Today, 13 July, Monday

Time Temperature Precipitation Wind Pressure Humidity
00:00 +14°C° 0 mm 1 mps 712 mmHg 92%
01:00 +13°C° 0 mm 1 mps 712 mmHg 92%
02:00 +13°C° 0 mm 1 mps 711 mmHg 93%
03:00 +12°C° 0 mm 1 mps 711 mmHg 93%
04:00 +14°C° 0 mm 1 mps 711 mmHg 90%
05:00 +15°C° 0 mm 1 mps 711 mmHg 87%
06:00 +15°C° 0 mm 0 mps 712 mmHg 83%
07:00 +18°C° 0 mm 1 mps 712 mmHg 78%
08:00 +20°C° 0 mm 1 mps 712 mmHg 72%
09:00 +21°C° 0 mm 1 mps 712 mmHg 66%
10:00 +21°C° 0.1 mm 2 mps 712 mmHg 61%
11:00 +23°C° 0.1 mm 2 mps 712 mmHg 57%
12:00 +24°C° 0.1 mm 2 mps 712 mmHg 52%
13:00 +24°C° 0.1 mm 2 mps 711 mmHg 51%
14:00 +25°C° 0.1 mm 2 mps 711 mmHg 50%
15:00 +25°C° 0.1 mm 2 mps 710 mmHg 50%
16:00 +23°C° 0 mm 2 mps 710 mmHg 57%
17:00 +21°C° 0 mm 2 mps 710 mmHg 64%
18:00 +21°C° 0 mm 1 mps 710 mmHg 71%
19:00 +19°C° 0 mm 1 mps 710 mmHg 76%
20:00 +16°C° 0 mm 1 mps 710 mmHg 81%
21:00 +15°C° 0 mm 1 mps 710 mmHg 85%
22:00 +14°C° 0 mm 1 mps 709 mmHg 87%
23:00 +14°C° 0 mm 1 mps 709 mmHg 88%

Tomorrow, 14 July, Tuesday

Time Temperature Precipitation Wind Pressure Humidity
00:00 +13°C° 0 mm 1 mps 709 mmHg 89%
01:00 +12°C° 0 mm 0 mps 709 mmHg 90%
02:00 +11°C° 0 mm 0 mps 708 mmHg 90%
03:00 +11°C° 0 mm 0 mps 708 mmHg 91%
04:00 +12°C° 0 mm 0 mps 708 mmHg 87%
05:00 +14°C° 0 mm 0 mps 708 mmHg 83%
06:00 +15°C° 0 mm 0 mps 709 mmHg 80%
07:00 +17°C° 0 mm 0 mps 709 mmHg 74%
08:00 +21°C° 0 mm 1 mps 709 mmHg 68%
09:00 +22°C° 0 mm 1 mps 709 mmHg 63%
10:00 +23°C° 0.2 mm 1 mps 709 mmHg 61%
11:00 +23°C° 0.2 mm 1 mps 708 mmHg 60%
12:00 +24°C° 0.2 mm 1 mps 708 mmHg 59%
13:00 +23°C° 0.4 mm 1 mps 708 mmHg 63%
14:00 +23°C° 0.4 mm 1 mps 708 mmHg 67%
15:00 +21°C° 0.4 mm 2 mps 707 mmHg 70%
16:00 +22°C° 0.7 mm 1 mps 707 mmHg 76%
17:00 +21°C° 0.7 mm 1 mps 707 mmHg 82%
18:00 +18°C° 0.7 mm 0 mps 707 mmHg 88%
19:00 +16°C° 0.1 mm 0 mps 707 mmHg 89%
20:00 +16°C° 0.1 mm 1 mps 707 mmHg 91%
21:00 +14°C° 0.1 mm 1 mps 707 mmHg 92%
22:00 +14°C° 0 mm 1 mps 707 mmHg 92%
23:00 +14°C° 0 mm 1 mps 707 mmHg 92%

Day after tomorrow, 15 July, Wednesday

Time Temperature Precipitation Wind Pressure Humidity
00:00 +13°C° 0 mm 1 mps 707 mmHg 93%
01:00 +13°C° 0 mm 1 mps 707 mmHg 93%
02:00 +13°C° 0 mm 1 mps 706 mmHg 93%
03:00 +13°C° 0 mm 1 mps 706 mmHg 93%
04:00 +14°C° 0.1 mm 1 mps 706 mmHg 93%
05:00 +15°C° 0.1 mm 1 mps 707 mmHg 92%
06:00 +15°C° 0.1 mm 1 mps 707 mmHg 92%
07:00 +16°C° 0.7 mm 1 mps 707 mmHg 92%
08:00 +16°C° 0.7 mm 1 mps 707 mmHg 93%
09:00 +16°C° 0.7 mm 1 mps 707 mmHg 94%
10:00 +16°C° 0.3 mm 1 mps 707 mmHg 91%
11:00 +18°C° 0.3 mm 1 mps 707 mmHg 88%
12:00 +16°C° 0.3 mm 0 mps 707 mmHg 85%
13:00 +19°C° 0.3 mm 1 mps 707 mmHg 79%
14:00 +21°C° 0.3 mm 1 mps 708 mmHg 73%
15:00 +22°C° 0.3 mm 1 mps 708 mmHg 67%
16:00 +20°C° 0.6 mm 1 mps 708 mmHg 76%
17:00 +19°C° 0.6 mm 1 mps 708 mmHg 84%
18:00 +16°C° 0.6 mm 1 mps 708 mmHg 92%
19:00 +15°C° 0.6 mm 0 mps 708 mmHg 93%
20:00 +14°C° 0.6 mm 0 mps 708 mmHg 94%
21:00 +14°C° 0.6 mm 0 mps 709 mmHg 95%
22:00 +14°C° 0.3 mm 0 mps 709 mmHg 95%
23:00 +14°C° 0.3 mm 0 mps 709 mmHg 95%

16 July, Thursday

Time Temperature Precipitation Wind Pressure Humidity
00:00 +13°C° 0.3 mm 0 mps 709 mmHg 95%
01:00 +13°C° 0.2 mm 0 mps 709 mmHg 95%
02:00 +13°C° 0.2 mm 0 mps 709 mmHg 95%
03:00 +13°C° 0.2 mm 0 mps 708 mmHg 95%
04:00 +13°C° 0.1 mm 0 mps 709 mmHg 95%
05:00 +13°C° 0.1 mm 0 mps 709 mmHg 94%
06:00 +13°C° 0.1 mm 0 mps 709 mmHg 94%
07:00 +15°C° 0.2 mm 1 mps 709 mmHg 88%
08:00 +16°C° 0.2 mm 1 mps 710 mmHg 82%
09:00 +19°C° 0.2 mm 1 mps 710 mmHg 75%
10:00 +20°C° 0.2 mm 1 mps 710 mmHg 70%
11:00 +21°C° 0.2 mm 1 mps 710 mmHg 64%
12:00 +21°C° 0.2 mm 2 mps 710 mmHg 59%
13:00 +20°C° 0.2 mm 2 mps 710 mmHg 61%
14:00 +20°C° 0.2 mm 2 mps 710 mmHg 63%
15:00 +20°C° 0.2 mm 2 mps 709 mmHg 65%
16:00 +19°C° 0.3 mm 2 mps 709 mmHg 72%
17:00 +19°C° 0.3 mm 1 mps 709 mmHg 78%
18:00 +18°C° 0.3 mm 1 mps 709 mmHg 85%
19:00 +16°C° 0.1 mm 1 mps 709 mmHg 87%
20:00 +14°C° 0.1 mm 1 mps 709 mmHg 88%
21:00 +13°C° 0.1 mm 1 mps 710 mmHg 90%
22:00 +13°C° 0 mm 1 mps 709 mmHg 91%
23:00 +12°C° 0 mm 1 mps 709 mmHg 92%

17 July, Friday

Time Temperature Precipitation Wind Pressure Humidity
00:00 +12°C° 0 mm 1 mps 709 mmHg 92%
01:00 +11°C° 0 mm 1 mps 709 mmHg 93%
02:00 +11°C° 0 mm 1 mps 709 mmHg 93%
03:00 +11°C° 0 mm 1 mps 709 mmHg 94%
04:00 +12°C° 0 mm 1 mps 709 mmHg 92%
05:00 +13°C° 0 mm 1 mps 709 mmHg 91%
06:00 +14°C° 0 mm 1 mps 709 mmHg 90%
07:00 +16°C° 0 mm 1 mps 710 mmHg 80%
08:00 +17°C° 0 mm 2 mps 710 mmHg 71%
09:00 +19°C° 0 mm 2 mps 710 mmHg 62%
10:00 +20°C° 0 mm 3 mps 710 mmHg 58%
11:00 +21°C° 0 mm 3 mps 710 mmHg 55%
12:00 +21°C° 0 mm 3 mps 710 mmHg 51%
13:00 +21°C° 0.1 mm 3 mps 709 mmHg 53%
14:00 +21°C° 0.1 mm 3 mps 709 mmHg 55%
15:00 +21°C° 0.1 mm 3 mps 709 mmHg 57%
16:00 +20°C° 0.2 mm 3 mps 709 mmHg 66%
17:00 +19°C° 0.2 mm 3 mps 709 mmHg 74%
18:00 +17°C° 0.2 mm 2 mps 709 mmHg 83%
19:00 +16°C° 0 mm 2 mps 709 mmHg 86%
20:00 +14°C° 0 mm 2 mps 709 mmHg 89%
21:00 +13°C° 0 mm 2 mps 709 mmHg 92%
22:00 +12°C° 0 mm 1 mps 709 mmHg 93%
23:00 +12°C° 0 mm 1 mps 709 mmHg 93%

18 July, Saturday

Time Temperature Precipitation Wind Pressure Humidity
00:00 +11°C° 0 mm 1 mps 709 mmHg 93%
01:00 +11°C° 0 mm 1 mps 709 mmHg 94%
02:00 +11°C° 0 mm 1 mps 709 mmHg 94%
03:00 +10°C° 0 mm 1 mps 709 mmHg 94%
04:00 +11°C° 0 mm 1 mps 709 mmHg 92%
05:00 +12°C° 0 mm 1 mps 709 mmHg 90%
06:00 +13°C° 0 mm 1 mps 709 mmHg 88%
07:00 +15°C° 0 mm 2 mps 709 mmHg 79%
08:00 +17°C° 0 mm 3 mps 709 mmHg 69%
09:00 +19°C° 0 mm 4 mps 709 mmHg 60%
10:00 +20°C° 0 mm 4 mps 709 mmHg 56%
11:00 +21°C° 0 mm 4 mps 708 mmHg 52%
12:00 +22°C° 0 mm 4 mps 708 mmHg 48%
13:00 +22°C° 0 mm 4 mps 708 mmHg 50%
14:00 +22°C° 0 mm 4 mps 708 mmHg 52%
15:00 +22°C° 0 mm 4 mps 708 mmHg 54%
16:00 +21°C° 0 mm 3 mps 708 mmHg 61%
17:00 +20°C° 0 mm 3 mps 708 mmHg 67%
18:00 +18°C° 0 mm 2 mps 707 mmHg 74%
19:00 +17°C° 0 mm 2 mps 707 mmHg 79%
20:00 +15°C° 0 mm 1 mps 707 mmHg 85%
21:00 +13°C° 0 mm 1 mps 707 mmHg 90%
22:00 +13°C° 0 mm 1 mps 707 mmHg 91%
23:00 +12°C° 0 mm 1 mps 707 mmHg 92%
Show more